[[{"header":{"parameterUnit":"m.s-1","parameterCategory":1,"la1":30.2991,"la2":30.254,"lo1":-89.0895,"lo2":-89.0444,"dy":0.0017,"dx":0.0017,"nx":28,"ny":28,"refTime":"2026-02-03T09:00:00:Z","depth":0,"parameterNumber":2,"parameterNumberName":"U-component_of_WINDS"},"data":[0,0,0,0,0,0,0,0,0,0,0,0,0,0,0,0,0,0,0,0,0,0,0,0,0,0,0,0,0,0,0,0,0,0,0,0,0,0,0,0,0,0,0,0,0,0,0,0,0,0,0,0,0,0,0,0,0,0,2.357,2.3571,0,2.3645,2.3646,2.3647,2.3633,2.3632,2.363,2.3629,2.371,2.3713,2.3717,0,0,0,0,0,0,0,0,0,0,0,0,0,2.3418,2.3421,2.357,2.3571,2.3572,2.3645,2.3646,2.3647,2.3633,2.3632,2.363,2.3628,2.3709,2.3713,2.3717,0,0,0,0,0,0,0,0,0,0,0,0,0,2.3488,2.3422,2.357,2.3573,2.3574,2.3645,2.3646,2.3648,2.3634,2.3632,2.363,2.3628,2.3708,2.3713,2.3718,2.379,0,0,2.3733,2.3736,0,0,0,0,0,0,0,0,2.3484,2.3493,2.3572,2.3573,2.3575,2.3628,2.3622,2.3696,2.3634,2.3611,2.3629,2.3627,2.3684,2.3691,2.371,2.3794,2.3797,2.3734,2.3737,2.3739,2.3741,0,0,0,0,0,0,0,2.3479,2.349,2.36,2.3573,2.3575,2.3573,2.3581,2.3636,2.3659,2.3613,2.3612,2.3621,2.3685,2.3705,2.3712,2.3799,2.3734,2.3738,2.3741,2.3743,2.3948,2.395,0,0,0,0,0,0,2.3472,2.3486,2.3597,2.3602,2.3523,2.3577,2.3586,2.3613,2.3658,2.3663,2.3623,2.362,2.3697,2.3706,2.3715,2.3804,2.3739,2.3744,2.3747,2.3946,2.3948,2.3951,0,0,0,0,0,0,2.3469,2.3482,2.3594,2.3544,2.3558,2.3582,2.3612,2.3615,2.3636,2.3665,2.3669,2.3639,2.3696,2.3708,2.3772,2.3806,2.3746,2.3751,2.3943,2.3946,2.395,2.3981,0,0,0,0,0,0,2.3465,2.3481,2.3508,2.3544,2.3561,2.3649,2.3614,2.3618,2.3644,2.3641,2.3682,2.3686,2.3695,2.3764,2.3777,2.3812,2.3755,2.394,2.3944,2.3949,2.3977,2.3986,2.3993,0,0,0,0,0,2.3459,2.3514,2.3509,2.3523,2.3594,2.365,2.366,2.3668,2.3647,2.3675,2.3694,2.3685,2.38,2.3771,2.3785,2.3822,2.3938,2.3943,2.3948,2.3974,2.3984,2.3992,0,0,0,0,0,0,2.3481,2.3519,2.3514,2.3582,2.3613,2.3648,2.3683,2.3678,2.3717,2.3713,2.3723,2.3732,2.3797,2.3816,2.3783,2.3896,2.3866,2.3875,2.3881,2.3891,2.3898,2.3892,2.3759,0,0,0,0,0,2.3494,2.3535,2.3566,2.3623,2.3639,2.3659,2.3684,2.3687,2.372,2.3734,2.3758,2.3792,2.3836,2.3864,2.3906,2.398,2.399,2.4013,2.4021,2.4027,2.4034,2.4077,2.4088,2.3968,2.3968,2.3968,0,0,2.3521,2.3546,2.3572,2.3629,2.3653,2.3697,2.367,2.3717,2.3751,2.3741,2.3803,2.3822,2.3861,2.3931,2.3963,2.3949,2.407,2.4034,2.4038,2.4042,2.4083,2.4095,2.4105,2.3972,2.3971,2.3971,0,0,2.3592,2.3615,2.3666,2.3691,2.3729,2.3741,2.3754,2.379,2.3802,2.3864,2.3859,2.3899,2.3974,2.4003,2.4027,2.4111,2.4105,2.4125,2.4164,2.4205,2.4215,2.4223,2.4254,2.4265,2.4132,2.4132,2.4132,0,2.3621,2.3685,2.3692,2.3741,2.3767,2.376,2.3813,2.3837,2.3887,2.3906,2.3889,2.3985,2.401,2.4087,2.4108,2.4127,2.4143,2.412,2.4213,2.4221,2.4229,2.4259,2.4271,2.4134,2.4134,2.4133,2.4133,0,2.372,2.3765,2.3802,2.3849,2.388,2.393,2.3946,2.3976,2.3978,2.3993,2.4058,2.4088,2.4137,2.4156,2.4158,2.4234,2.4224,2.421,2.418,2.4243,2.4271,2.4282,2.4137,2.4136,2.4136,2.4135,0,0,2.3805,2.3857,2.3871,2.3893,2.3935,2.3971,2.4022,2.4069,2.4095,2.4131,2.4175,2.4239,2.4227,2.4254,2.426,2.4296,2.4363,2.4278,2.4279,2.4294,2.445,2.446,2.4473,2.4359,2.4361,2.4363,2.4447,0,2.3881,2.3969,2.3978,2.4058,2.4101,2.4097,2.4142,2.4173,2.4189,2.423,2.4248,2.4294,2.4274,2.429,2.4326,2.4347,2.4394,2.4341,2.4402,2.4404,2.4392,2.4488,2.4498,2.4576,2.4458,2.446,2.4461,0,2.398,2.4018,2.4102,2.414,2.4158,2.4198,2.4243,2.4281,2.4317,2.4327,2.4358,2.436,2.4414,2.4383,2.4459,2.4423,2.4448,2.4463,2.4466,2.4472,2.4436,2.4497,2.4601,2.4613,2.4478,2.4477,2.4476,0,2.4035,2.4107,2.4167,2.4187,2.4232,2.426,2.4281,2.4315,2.4343,2.4383,2.4402,2.4448,2.4473,2.451,2.4524,2.45,2.4601,2.457,2.4611,2.4611,2.4632,2.4631,2.4742,2.4648,2.4648,2.4648,2.4648,0,2.4119,2.417,2.4193,2.423,2.4289,2.4299,2.4358,2.4377,2.4408,2.445,2.445,2.4489,2.4506,2.4549,2.4561,2.4623,2.4635,2.4645,2.4648,2.4645,2.4644,2.4662,2.4657,2.4651,2.465,2.465,2.4649,0,2.4189,2.4206,2.4272,2.4309,2.432,2.4362,2.4395,2.4432,2.4448,2.4501,2.4515,2.4541,2.4591,2.461,2.4671,2.468,2.4752,2.475,2.4739,2.474,2.4781,2.4777,2.4908,2.4926,2.482,2.4821,2.4822,0,2.4241,2.4281,2.4324,2.4351,2.4373,2.4417,2.4446,2.4459,2.449,2.4536,2.4567,2.4618,2.4658,2.474,2.4766,2.4813,2.4813,2.4856,2.482,2.4817,2.4814,2.4812,2.4817,2.4862,2.4863,2.4864,2.4865,0,2.4332,2.4339,2.438,2.4425,2.446,2.4496,2.4531,2.4554,2.4573,2.4608,2.4659,2.4691,2.4754,2.4805,2.4854,2.4877,2.4875,2.4876,2.4888,2.4886,2.4878,2.4884,2.4758,2.4873,2.4872,2.4871,2.4871,2.4871,2.4395,2.4431,2.4467,2.4514,2.4542,2.4575,2.4612,2.4633,2.4676,2.4728,2.4733,2.4789,2.4827,2.4893,2.4919,2.4964,2.4952,2.497,2.4974,2.4978,2.4982,2.4871,2.4973,2.4973,2.4972,2.4972,2.4972,0,2.4486,2.451,2.4552,2.4602,2.4639,2.4633,2.4673,2.4704,2.4753,2.4788,2.4829,2.4889,2.4939,2.4969,2.5019,2.505,2.505,2.5062,2.506,2.5066,2.4989,2.4973,2.5061,2.5061,2.5061,2.5061,2.5061,2.5061,2.4538,2.4599,2.461,2.4686,2.4709,2.4763,2.4786,2.4818,2.4846,2.4913,2.4954,2.4973,2.5007,2.506,2.5106,2.5114,2.5133,2.5146,2.5153,2.508,2.5071,2.5062,2.5048,2.515,2.515,2.5227,2.5227,2.5228]},{"header":{"parameterUnit":"m.s-1","parameterCategory":1,"la1":30.2991,"la2":30.254,"lo1":-89.0895,"lo2":-89.0444,"dy":0.0017,"dx":0.0017,"nx":28,"ny":28,"refTime":"2026-02-03T09:00:00:Z","depth":0,"parameterNumber":3,"parameterNumberName":"V-component_of_WINDS"},"data":[0,0,0,0,0,0,0,0,0,0,0,0,0,0,0,0,0,0,0,0,0,0,0,0,0,0,0,0,0,0,0,0,0,0,0,0,0,0,0,0,0,0,0,0,0,0,0,0,0,0,0,0,0,0,0,0,0,0,2.7052,2.7053,0,2.7134,2.7135,2.7136,2.7144,2.7143,2.7142,2.7141,2.7229,2.7232,2.7235,0,0,0,0,0,0,0,0,0,0,0,0,0,2.6907,2.6909,2.7052,2.7053,2.7054,2.7134,2.7135,2.7136,2.7144,2.7143,2.7142,2.7141,2.7228,2.7232,2.7235,0,0,0,0,0,0,0,0,0,0,0,0,0,2.6977,2.691,2.7052,2.7067,2.707,2.7134,2.7135,2.7136,2.7144,2.7143,2.7142,2.714,2.7227,2.7231,2.7236,2.7291,0,0,2.725,2.7252,0,0,0,0,0,0,0,0,2.6973,2.6983,2.7064,2.7066,2.7069,2.7127,2.7116,2.7188,2.7145,2.7116,2.7141,2.714,2.7196,2.7204,2.7222,2.7295,2.7299,2.7251,2.7254,2.7256,2.7257,0,0,0,0,0,0,0,2.6968,2.6979,2.7085,2.7065,2.7068,2.7072,2.708,2.713,2.7163,2.7118,2.7119,2.7129,2.7198,2.7217,2.7224,2.73,2.7251,2.7255,2.7258,2.726,2.7425,2.7427,0,0,0,0,0,0,2.696,2.6975,2.7082,2.7087,2.7017,2.7076,2.7085,2.711,2.7162,2.7169,2.713,2.7129,2.721,2.7219,2.7227,2.7297,2.7256,2.726,2.7263,2.7424,2.7425,2.7427,0,0,0,0,0,0,2.6957,2.6969,2.7079,2.7031,2.7045,2.7079,2.7107,2.7112,2.7132,2.717,2.7177,2.7143,2.7209,2.7221,2.7275,2.73,2.7262,2.7267,2.7422,2.7424,2.7426,2.7435,0,0,0,0,0,0,2.6953,2.6968,2.6988,2.7032,2.7048,2.7124,2.7109,2.7115,2.714,2.7139,2.7185,2.7192,2.7209,2.7268,2.728,2.7305,2.727,2.742,2.7423,2.7426,2.7432,2.7437,2.7441,0,0,0,0,0,2.6947,2.6988,2.6989,2.7002,2.7074,2.7125,2.7135,2.7153,2.7141,2.7163,2.7188,2.719,2.7295,2.7274,2.7287,2.7314,2.7418,2.7422,2.7425,2.743,2.7436,2.7441,0,0,0,0,0,0,2.6947,2.6994,2.6996,2.7051,2.7084,2.7126,2.7154,2.7158,2.7196,2.7194,2.7216,2.7227,2.7281,2.7303,2.7279,2.7371,2.7356,2.7362,2.7355,2.7361,2.7365,2.7359,2.7274,0,0,0,0,0,2.6954,2.6991,2.703,2.7075,2.7091,2.712,2.7143,2.7154,2.719,2.7204,2.7233,2.7268,2.731,2.7336,2.7376,2.7435,2.7447,2.7461,2.7465,2.7468,2.7474,2.7509,2.7516,2.7439,2.7439,2.7439,0,0,2.6967,2.6997,2.7019,2.7076,2.7102,2.7142,2.7131,2.7173,2.7203,2.7211,2.7264,2.7287,2.7328,2.7386,2.7413,2.7406,2.7498,2.7473,2.7475,2.7479,2.7514,2.7521,2.7527,2.7441,2.7441,2.744,0,0,2.7013,2.7038,2.7079,2.7106,2.7147,2.7166,2.7176,2.7218,2.7233,2.7287,2.7294,2.7331,2.74,2.743,2.7454,2.7512,2.7516,2.7524,2.7547,2.7581,2.7587,2.7593,2.7615,2.7623,2.753,2.753,2.753,0,2.7025,2.7083,2.71,2.7142,2.7167,2.7175,2.7218,2.7244,2.7296,2.7314,2.7305,2.7394,2.7423,2.7488,2.7502,2.7521,2.7535,2.752,2.7585,2.759,2.7596,2.7617,2.7626,2.753,2.753,2.753,2.753,0,2.7097,2.7137,2.7166,2.7215,2.7244,2.7286,2.7311,2.7338,2.7347,2.7367,2.7423,2.7458,2.7505,2.7522,2.7531,2.7589,2.7584,2.758,2.7565,2.7604,2.7625,2.7633,2.7532,2.7531,2.7531,2.7531,0,0,2.7144,2.7203,2.7213,2.7236,2.7282,2.7314,2.7358,2.7403,2.7427,2.7463,2.7501,2.7561,2.7557,2.7585,2.7598,2.7627,2.7673,2.762,2.7621,2.763,2.7742,2.7745,2.7755,2.7676,2.7677,2.7679,2.7739,0,2.7195,2.7271,2.7289,2.7355,2.7394,2.7402,2.744,2.7474,2.7494,2.7531,2.7555,2.7597,2.7588,2.7605,2.7635,2.7661,2.7696,2.7657,2.7714,2.7715,2.7704,2.7765,2.7769,2.7824,2.7747,2.7748,2.7749,0,2.7265,2.7302,2.7372,2.7414,2.7431,2.7464,2.7509,2.7543,2.7582,2.7595,2.7626,2.7637,2.7684,2.7666,2.7733,2.7706,2.773,2.7747,2.7749,2.7756,2.7735,2.7775,2.7842,2.785,2.7762,2.7761,2.776,0,2.7294,2.7362,2.7412,2.7432,2.7482,2.7506,2.7528,2.7565,2.7592,2.7631,2.7649,2.7693,2.7718,2.7753,2.7776,2.776,2.7842,2.7825,2.7856,2.7855,2.7873,2.7872,2.7946,2.7887,2.7887,2.7887,2.7886,0,2.735,2.7393,2.7426,2.7458,2.7506,2.7527,2.7575,2.7598,2.7631,2.7668,2.7679,2.7714,2.7741,2.7781,2.7799,2.7853,2.7864,2.7877,2.7882,2.7877,2.7875,2.7894,2.7891,2.7889,2.7888,2.7888,2.7888,0,2.7391,2.7415,2.7471,2.7514,2.7526,2.756,2.7598,2.763,2.765,2.7698,2.771,2.7744,2.7791,2.7817,2.7876,2.7889,2.7949,2.7951,2.7936,2.7938,2.7968,2.7965,2.8057,2.8071,2.8001,2.8002,2.8003,0,2.7426,2.7459,2.7505,2.7531,2.7553,2.7593,2.7621,2.7643,2.7672,2.7719,2.7746,2.7793,2.7832,2.7908,2.7938,2.7985,2.7989,2.8018,2.7996,2.799,2.7991,2.7989,2.7993,2.8022,2.8022,2.8023,2.8023,0,2.7485,2.7496,2.7534,2.7577,2.761,2.7645,2.768,2.77,2.7729,2.7761,2.7808,2.7839,2.7899,2.7947,2.7996,2.8021,2.8028,2.803,2.804,2.8036,2.8026,2.8033,2.7948,2.8028,2.8028,2.8027,2.8027,2.8027,2.7525,2.7556,2.7593,2.7636,2.7665,2.7698,2.773,2.7755,2.7795,2.7845,2.7857,2.7908,2.7948,2.8014,2.804,2.8081,2.8076,2.809,2.8094,2.8097,2.8099,2.8018,2.809,2.809,2.809,2.809,2.809,0,2.7586,2.7611,2.7651,2.7699,2.7734,2.7736,2.7775,2.7804,2.7849,2.7885,2.7923,2.7979,2.8026,2.8061,2.8109,2.8136,2.814,2.8148,2.8147,2.8153,2.81,2.8087,2.8144,2.8144,2.8144,2.8144,2.8144,2.8143,2.7622,2.7674,2.7689,2.7756,2.7781,2.7831,2.7853,2.7884,2.7913,2.7975,2.8014,2.8036,2.8072,2.8123,2.8167,2.8176,2.8194,2.8202,2.8212,2.8162,2.8156,2.8151,2.8139,2.8205,2.8205,2.8261,2.8262,2.8262]}]]